Content
SEND FEEDBACK

Daily
Averages
Monthly
Summary
United States of America

STATEN ISLAND, NEW YORK


Home > North America > United States > New York
Elevation: 46 meters     Latitude: 40 35N     Longitude: 074 09W

WEATHER
 
SELECT A DAY
Number of Records: 189,501;   Date Range: 1/1/95 - 7/20/14
 
SHARE

PRINT THIS DATA

[ ← Previous Day ]
WEATHER ALMANAC - 20 APRIL, 2013
[ Next Day → ]
[ °F ]   °C
Weather ElementAverageHighLow
Temperature12.5 °C16.1 °C (3:51 pm)8.9 °C (11:51 pm)
Dewpoint1.3 °C13 °C (12:29 am)-6.1 °C (11:51 pm)
Humidity51.3 %92 % (3:51 am)25 % (5:51 pm)
Barometer1014.2 hPa1025.7 hPa (11:51 pm)1005.4 hPa (12:29 am)
Wind Speed26.2 km/h40.7 km/h (12:29 am)
Wind Gust50.1 km/h (12:29 am)
Weather ElementAverage
Visibility16.1 km
Wind DirectionWNW (276.9 °)

Weather ElementTotal
Precipitation2.29 mm
Heating Degree Days5.8 (Base 18.3)
Growing Degree Days2.5 (Base 10)
Averaged from 26 records on 20 April, 2013
WEATHER CONDITIONS BREAKOUT
WIND DIRECTION BREAKOUT
WEATHER BY HOUR - 20 APRIL, 2013
[ °F ]   °C
Local TimeTemperatureDewpointHumidityBarometerVisibilityWind DirectionWind SpeedGust SpeedPrecipitationEventsConditions
12:29 AM16 °C13 °C82 %1005.4 hPa16.1 kmWNW (290°)40.7 km/h50.1 km/h0.25 mmRainLight Rain
12:42 AM14 °C11 °C82 %1005.8 hPa16.1 kmWNW (290°)22.2 km/h0.25 mmRainLight Rain
12:51 AM14.4 °C11.1 °C81 %1006.1 hPa16.1 kmWest (270°)18.5 km/h0.51 mmRainLight Rain
1:51 AM13.3 °C10 °C80 %1006.1 hPa16.1 kmNW (310°)16.7 km/h0.25 mmRainLight Rain
2:51 AM11.1 °C8.9 °C86 %1007.8 hPa16.1 kmWest (270°)16.7 km/h0.51 mmRainLight Rain
3:51 AM10.6 °C9.4 °C92 %1007.5 hPa16.1 kmWest (260°)13 km/h0.51 mmRainLight Rain
4:51 AM11.1 °C8.9 °C86 %1008.5 hPa16.1 kmWest (260°)18.5 km/h0 mmRainLight Rain
5:51 AM10.6 °C7.2 °C80 %1010.5 hPa16.1 kmWest (260°)22.2 km/h0 mmOvercast
6:51 AM10.6 °C5 °C68 %1011.5 hPa16.1 kmWest (270°)16.7 km/hOvercast
7:51 AM10.6 °C2.8 °C59 %1012.2 hPa16.1 kmWest (280°)24.1 km/hOvercast
8:51 AM11.1 °C0 °C47 %1012.2 hPa16.1 kmWNW (290°)33.3 km/h44.4 km/hMostly Cloudy
9:51 AM11.1 °C-1.7 °C41 %1013.9 hPa16.1 kmWest (280°)33.3 km/h48.1 km/hMostly Cloudy
10:51 AM12.2 °C-1.7 °C38 %1014.9 hPa16.1 kmWest (280°)35.2 km/h46.3 km/hMostly Cloudy
11:51 AM11.1 °C-2.8 °C38 %1015.9 hPa16.1 kmWest (260°)35.2 km/h44.4 km/hMostly Cloudy
12:51 PM12.2 °C-1.7 °C38 %1015.6 hPa16.1 kmWNW (290°)27.8 km/h38.9 km/hMostly Cloudy
1:51 PM13.9 °C-2.2 °C33 %1014.9 hPa16.1 kmWest (270°)29.6 km/h48.1 km/hMostly Cloudy
2:51 PM15 °C-2.8 °C29 %1014.9 hPa16.1 kmWSW (250°)29.6 km/h44.4 km/hScattered Clouds
3:51 PM16.1 °C-2.2 °C29 %1015.6 hPa16.1 kmWest (260°)33.3 km/h42.6 km/hScattered Clouds
4:51 PM15.6 °C-3.3 °C27 %1016.3 hPa16.1 kmWest (270°)33.3 km/h50.1 km/hScattered Clouds
5:51 PM15.6 °C-4.4 °C25 %1017.6 hPa16.1 kmWest (280°)25.9 km/hScattered Clouds
6:51 PM13.9 °C-5 °C27 %1018.6 hPa16.1 kmWest (280°)27.8 km/hScattered Clouds
7:51 PM12.8 °C-4.4 °C30 %1020 hPa16.1 kmWest (270°)25.9 km/h37 km/hScattered Clouds
8:51 PM11.7 °C-4.4 °C32 %1021.7 hPa16.1 kmWest (270°)24.1 km/h37 km/hScattered Clouds
9:51 PM11.1 °C-4.4 °C34 %1023.4 hPa16.1 kmWest (270°)24.1 km/hMostly Cloudy
10:51 PM10 °C-5 °C35 %1024.7 hPa16.1 kmNW (310°)27.8 km/h38.9 km/hScattered Clouds
11:51 PM8.9 °C-6.1 °C34 %1025.7 hPa16.1 kmNW (310°)24.1 km/h40.7 km/hPartly Cloudy
Hourly data recorded from KEWR, located 0 kilometers away from Staten Island, New York







STORIES FROM OUR PARTNERS